World > North America > United States > Oregon

Beavercreek, Oregon Regional Weather

Lat: 45.17N, Lon: 122.26W
Wx Zone: ORZ010Web Search

Helpful Tip: Abbreviated, 7 Day, 14 Day Forecasts. There is a weather forecast for every taste.

Feedback


°F Click to change Beavercreek hourly weather to Imperial units.Click to change Beavercreek hourly weather to Metric units. °C
Beavercreek Weather Map
UTC Time: 5/9/2021, 08:31
Your Time:

Beavercreek, OR Regional Weather

Expires:202105090900;;828545
ASUS46 KPQR 090810
RWROR 

OREGON REGIONAL WEATHER ROUNDUP
NATIONAL WEATHER SERVICE PORTLAND OR
100 AM PDT SUN MAY 09 2021

NOTE: "FAIR" INDICATES FEW OR NO CLOUDS BELOW 12,000 FEET WITH
NO SIGNIFICANT WEATHER AND/OR OBSTRUCTIONS TO VISIBILITY.


ORZ001>013-090900-
NORTHWEST OREGON

  
CITY           SKY/WX    TMP DP  RH WIND       PRES   REMARKS
ASTORIA        CLOUDY    50  48  93 S3        30.32S                  
TILLAMOOK      CLOUDY    48  46  93 CALM      30.35S                  
NEWPORT        MOCLDY    45  43  93 CALM        N/A                   
FLORENCE       MOCLDY    46  43  91 CALM      30.34S                  
PORTLAND       CLOUDY    54  44  69 N5        30.31F                  
VANCOUVER WA   CLOUDY    54  43  66 NW3       30.31S                  
SCAPPOOSE      CLOUDY    53  44  71 N5        30.31F                  
HILLSBORO      CLOUDY    51  45  79 W6        30.31F                  
AURORA         CLOUDY    53  45  74 CALM      30.32F                  
MCMINNVILLE    CLOUDY    50  46  86 W7        30.31F                  
SALEM          CLOUDY    52  43  71 W3        30.30F                  
CORVALLIS      CLOUDY    49  48  97 NW5       30.32F                  
EUGENE         CLOUDY    48  42  80 CALM      30.32F                  
CRESWELL       PTCLDY    45  45 100 CALM      30.30F                  
$$


SKY/WX - Weather  TMP - Temperature  DP - Dew Point  RH - Relative Humidity
WIND - Wind Direction/Speed PRES - Barometric Pressure VSB - Visibility
WCI - Wind Chill Index E13G22 Wind - East Wind 13 mph/Gusts of 22 mph